Content
SEND FEEDBACK

Daily
Averages
Monthly
Summary
United States of America

DEDEDO, GUAM


Home > North America > United States > Guam
Elevation: 364 feet     Latitude: 13 33N     Longitude: 144 49E

WEATHER
 
SELECT A DAY
Number of Records: 213,810;   Date Range: 1/1/95 - 10/21/14
 
SHARE

PRINT THIS DATA

[ ← Previous Day ]
WEATHER ALMANAC - FEBRUARY 21, 2014
[ Next Day → ]
[ °C ]   °F
Weather ElementAverageHighLow
Temperature80.7 °F86 °F (1:54 pm)73.9 °F (2:54 am)
Dewpoint73.8 °F75 °F (2:54 pm)71.1 °F (2:54 am)
Humidity80 %94 % (4:54 am)67 % (10:54 am)
Barometer29.83 in29.88 in (8:54 am)29.78 in (2:54 pm)
Wind Speed5.5 mph10.4 mph (1:54 pm)
Wind Gust16.1 mph (1:54 pm)
Weather ElementAverage
Visibility10 mi
Wind DirectionENE (60.4 °)

Weather ElementTotal
Precipitation---
Cooling Degree Days15 (Base 65)
Growing Degree Days30 (Base 50)
Averaged from 23 records on February 21, 2014
WEATHER CONDITIONS BREAKOUT
WIND DIRECTION BREAKOUT
WEATHER BY HOUR - FEBRUARY 21, 2014
[ °C ]   °F
Local TimeTemperatureDewpointHumidityBarometerVisibilityWind DirectionWind SpeedGust SpeedPrecipitationEventsConditions
1:54 AM78.1 °F73.9 °F87 %29.82 in10.0 miCalmClear
2:54 AM73.9 °F71.1 °F91 %29.81 in10.0 miCalmClear
3:54 AM77.0 °F73.9 °F90 %29.81 in10.0 miCalmClear
4:54 AM75.0 °F73.0 °F94 %29.82 in10.0 miENE (60°)3.5 mphClear
5:54 AM75.0 °F73.0 °F94 %29.83 in10.0 miCalmClear
6:54 AM75.9 °F73.0 °F91 %29.85 in10.0 miENE (60°)5.8 mphClear
7:54 AM79.0 °F73.9 °F84 %29.87 in10.0 miENE (60°)4.6 mphScattered Clouds
8:54 AM82.0 °F73.9 °F76 %29.88 in10.0 miENE (70°)4.6 mphPartly Cloudy
9:54 AM82.9 °F73.9 °F74 %29.88 in10.0 miEast (90°)5.8 mphClear
10:54 AM84.9 °F73.0 °F67 %29.87 in10.0 miESE (110°)6.9 mphClear
11:54 AM84.0 °F73.0 °F69 %29.85 in10.0 miESE (110°)8.1 mphClear
12:54 PM84.9 °F73.0 °F67 %29.83 in10.0 miESE (120°)8.1 mphScattered Clouds
1:54 PM86.0 °F73.9 °F67 %29.80 in10.0 miEast (90°)10.4 mph16.1 mphScattered Clouds
2:54 PM86.0 °F75.0 °F70 %29.78 in10.0 miEast (90°)10.4 mphPartly Cloudy
3:54 PM84.0 °F73.9 °F72 %29.78 in10.0 miEast (80°)9.2 mphScattered Clouds
4:54 PM84.0 °F73.9 °F72 %29.78 in10.0 miENE (70°)8.1 mphScattered Clouds
5:54 PM82.0 °F73.9 °F76 %29.80 in10.0 miENE (70°)8.1 mphScattered Clouds
6:54 PM81.0 °F75.0 °F82 %29.82 in10.0 miENE (60°)6.9 mphScattered Clouds
7:54 PM81.0 °F75.0 °F82 %29.84 in10.0 miNE (40°)5.8 mphMostly Cloudy
8:54 PM80.1 °F75.0 °F85 %29.86 in10.0 miNE (50°)3.5 mphScattered Clouds
9:54 PM80.1 °F75.0 °F85 %29.87 in10.0 miNE (50°)4.6 mphMostly Cloudy
10:54 PM80.1 °F75.0 °F85 %29.87 in10.0 miENE (60°)5.8 mphMostly Cloudy
11:54 PM80.1 °F73.9 °F81 %29.86 in10.0 miNE (50°)5.8 mphOvercast
Hourly data recorded from PGUM, located miles away from Dededo, Guam







STORIES FROM OUR PARTNERS